Pagina principale
METAR-TAF:

METAR-TAF

Aeroporti :

Aeroporto di Forlì

Forlì, Italia

latitudine: 44-12N, longitudine: 012-04E, altezza: 27 m

Osservazione

Il bollettino è stato emesso 9 ore e 2 minuti fa, alle 16:50 UTC
Vento calmo
Temperature 5°C
Umidità 65%
Pressione 1026 hPa
Visibilità: 2000 m
foschia

METAR: LIPK 241650Z 00000KT 2000 BR NSC 05/M01 Q1026

Ora: 02:52 (01:52 UTC)


TAF: mancante

Osservazioni e previsioni meteorologiche di più di 4000 aeroporti (messaggi METAR e TAF).

Le stazioni disponibili sono rappresentate dai dischi gialli e rossi sulla carta.

Puntare il mouse per vedere il nome della stazione.

Clicca sopra per visualizzare le osservazioni e previsioni meteorologiche.

Per cambiare la mappa : fare clic sui pulsanti verdi con una croce nera per ingrandire, il pulsante verde con un trattino per diminuire, o sulla freccia verde per le mappe adiacenti.


METAR-TAF: